sat.trackr.live / text

‹ back to catalog

STARLINK-5743

NORAD 55597 · 2023-020AE

PAYLOAD ACTIVE UNKNOWN

§ Identity

Operator
Country
US
Launch date
2023-02-12
Launch site
AFETR
Launch vehicle
Mass (kg)
RCS (m²)

Purposes: comms

External: N2YO · Heavens-Above · Gunter

§ Orbital elements

Epoch: 2026-05-24T20:52:52.452192Z

Period
94.27 min
Inclination
43.0004°
Eccentricity
0.0001419
Mean motion
15.27574093 rev/d
Perigee alt
482.1 km
Apogee alt
484.0 km
Semi-major
6,861.2 km
B*
-7.8710e-6
RAAN
283.7136°
Arg perigee
269.0059°
Mean anomaly
91.0630°
Rev number
18,069

§ Raw data

STARLINK-57431 55597U 23020AE  26144.87005153 -.00000479  00000+0 -78710-5 0  99932 55597  43.0004 283.7136 0001419 269.0059  91.0630 15.27574093180696

JSON: /api/v1/satellites/55597 · /tle

For live sub-satellite position, see the globe view (requires WebGL).

§ Visibility from observer

Set your observer location to see the next 7 days of passes ≥ 10°. The values pass through the URL so the page stays shareable.

No JS? Fill the form by hand. The geolocation button needs JavaScript.